NOAA 16 DEB

Satellite information

Favourite Embed

Satellite Type and Status

DEBRISIN ORBIT

Key statistics

Satellite NOAA 16 DEB at a glance.

Uptime

9118

Days in orbit

Revolutions

≈ 14.1

Per day

Orbit

SSO

Sun Synchronous Orbit

Inclination

98.6

Latest

Satellite identification and parameters

Extended collection of information and parameters for NOAA 16 DEB.

Object identification

Identified? True

Debris? True

Object name: NOAA 16 DEB

International designator: 2000-055R

Object number (NORAD): 41058

Object ID (CCSDS): 41058

Country: UNITED STATES OF AMERICA (US)

Current information (Y/N): Y

RCS size: SMALL

Orbital parameters

Period: 101.965 minutes

Inclination: 98.5856 deg

SMA: 7229.822 km

Apoapsis: 867.712 km

Periapsis: 835.663 km

RAAN: 254.8075 deg

Eccentricy: 0.00221647

Argument of periapsis: 230.7057 deg

Mean anomaly: 129.215 deg

Mean motion: 14.12249125 rev/day

Mean motion (dot): 0.00001164 rev/day2

B* drag term: 0.00065428096 1/REarth

Two-line elements (TLE)

Creation date: Sept. 8, 2025, 3:16 a.m.

Reference frame: TEME

Reference center: EARTH

Epoch: Sept. 7, 2025, 10:09 p.m. UTC

TLE line 0: 0 NOAA 16 DEB

TLE line 1: 1 41058U 00055R 25250.92311391 .00001164 00000-0 65428-3 0 9991

TLE line 2: 2 41058 98.5856 254.8075 0022165 230.7057 129.2150 14.12249125503089

Live tracking on map

Real-time ground track for satellite NOAA 16 DEB.

In-orbit conjunctions

A list of the most updated potential collisions computed for object NOAA 16 DEB.

Target Orbit TCA Probability of collision Miss distance Type
FENGYUN 1C DEB SSO 2024-11-23 04:18:30 0.0001569409 67.0 (m) DEBRIS
COSMOS 2251 DEB LEO 2024-11-16 19:18:24 0.0003310788 732.0 (m) DEBRIS

Associated space launch

The NOAA K, L and M POES satellites begin the fifth generation of improved environmental monitoring in support of NOAA missions. The instrument payload has significant improvements and additions/deletions. The instrument changes have effected the spacecraft subsystems and data formats.

NOAA 16 DEB was lifted into orbit during the mission ‘Titan II SLV | NOAA 16’, on board a Titan II SLV space rocket.

The launch took place on Sept. 21, 2000, 10:22 a.m. from Space Launch Complex 4W.

For more information about the launch, click the button.

Launch to space Titan II SLV | NOAA 16
Titan II SLV | NOAA 16

Agency: N/A

Status: Launch Successful

Launch date: Sept. 21, 2000, 10:22 a.m. UTC

Rocket: Titan II SLV

Launch pad: Space Launch Complex 4W

Location: Vandenberg SFB, CA, USA

...

Latest news about this satellite

There are no fresh news available about this satellite. Check back as we update our databases every day.


Newsletter sign-up

Weekly statistics, charts and insights to help you stay on top of the space industry.